Location: Poughquag
(41.6090°N, 73.6820°W)
Time: 21:09:29
(UTC-04:00)

CUBESAT XI-V - Pass Details

Date: 22 April 2024
Orbit: 657 x 680 km, 98.2° (Epoch: 23 May)

Event Time Altitude Azimuth Distance (km) Brightness Sun altitude
Exits shadow 04:12:11 13° 296° (WNW) 1,893 ? -19.2°
Drops below altitude 10° 04:13:13 10° 308° (NW) 2,118 ? -19.1°
Sets 04:16:13 0° 329° (NNW) 3,034 ? -18.6°
